2018-100D (43826 NORAD) Tracking and Keplerian Element Data

This shows tracking and keplerian element data for the satellite.

Feedback or suggestion? Click here.




ElementValue
Catalog43826
Name2018-100D
Epoch Orbit8
Epoch Day342.56446276
Epoch Year2018
RAAN206.5601
Inclination3.5634
Eccentricity0.7269075
Argument of Perigee180.766
Mean Anonmoly176.9468
Mean Motion2.29963109
Decay Rate1E-07
L11 43826U 18100D 18342.56446276 .00000010 00000-0 00000-0 0 9992
L22 43826 3.5634 206.5601 7269075 180.7660 176.9468 2.29963109 80

Live tracking and technical data element details for 2018-100D (NORAD 43826). 2018-100D can be tracked NOW for your location showing map with azimuth and elevation plus other details from your city location.

Track the satellite on the map from your city or location and see movement details for azimuth, elevation, latitude, longitude, range, height, and movement on the map or in text.







IsCatalogInMostPopularTable: catalog: 43826, numindb: 1
Update: records affected: 1



GetName: 43826 2018-100D

Hit Count: updated at: Tue, 11 Dec 2018 02:26:53 GMT